Regional Weather Roundup
Issued by NWS

Home | Current Version | Previous Version | Text Only | Print | Product List | Glossary Off
Versions: 1 2 3 4 5 6 7 8 9 10 11 12 13 14 15 16 17 18 19 20 21 22 23 24 25 26 27 28 29 30 31 32 33 34 35 36 37 38 39 40 41 42 43 44 45 46 47 48 49 50

000
ASUS43 KLMK 210802
RWRKY
KENTUCKY REGIONAL WEATHER ROUNDUP
NATIONAL WEATHER SERVICE LOUISVILLE KY
300 AM EST SUN DEC 21 2014

NOTE "FAIR" INDICATES FEW OR NO CLOUDS BELOW 12,000 FEET
WITH NO SIGNIFICANT WEATHER AND/OR OBSTRUCTIONS TO VISIBILITY.

KYZ001>023-026-027-061>063-070>075-210900-
WESTERN AND SOUTH CENTRAL KENTUCKY

CITY           SKY/WX    TMP DP  RH WIND       PRES   REMARKS
PADUCAH        CLEAR     27  25  92 CALM      30.27R FOG
HENDERSON      CLEAR     25  21  86 E3        30.29S
OWENSBORO      CLEAR     28  26  92 CALM      30.30R
HOPKINSVILLE   CLEAR     28  24  85 NE5       30.26R WCI  23
BOWLING GREEN  CLEAR     25  21  85 CALM      30.28S
GLASGOW        NOT AVBL
$$

KYZ024-025-028>034-038-045-046-053-210900-
NORTH CENTRAL KENTUCKY

CITY           SKY/WX    TMP DP  RH WIND       PRES   REMARKS
LOUISVILLE/SDF CLEAR     26  23  88 CALM      30.30S FOG
LOUISVILLE/LOU CLEAR     25  21  85 CALM      30.31R FOG
FORT KNOX      CLEAR     24  22  91 NE5       30.27S WCI  18
$$

KYZ035>037-039>044-047>052-055>060-089>105-210900-
NORTHEAST KENTUCKY

CITY           SKY/WX    TMP DP  RH WIND       PRES   REMARKS
LEXINGTON      CLEAR     23  21  92 CALM      30.28S FOG
COVINGTON      CLOUDY    31  21  66 CALM      30.29R
FRANKFORT      CLEAR     21  18  88 CALM      30.28R
$$

KYZ054-064>069-076>088-106>120-210900-
SOUTHEAST KENTUCKY

CITY           SKY/WX    TMP DP  RH WIND       PRES   REMARKS
JACKSON        CLEAR     27  21  78 NE3       30.26R
LONDON         CLEAR     25  32 100 CALM      30.26R
SOMERSET       NOT AVBL
MIDDLESBORO    NOT AVBL
MONTICELLO     SUNNY     19  17  92 CALM      30.29S
$$



USA.gov is the U.S. government's official web portal to all federal, state and local government web resources and services.